Poughkeepsie, NY
on Friday, December 8, 2017

Friday
       
Previous Day Next Day
Daily Summary
 ActualAverageRecord
Temperature
Mean Temperature °F °C 34°F 1°C  
Max Temperature 35°F 2°C 43°F 6°C 61°F 16°C (1966)
Min Temperature 21°F -6°C 25°F -4°C 7°F -13°C (1949)
Degree Days
Heating Degree Days 37 31  
Month to date heating degree days 222 239  
Since 1 July heating degree days 1305 1517  
Cooling Degree Days 0 0  
Month to date cooling degree days 0 0  
Year to date cooling degree days 718 672  
Moisture
Dew Point 17°F -8°C   
Average Humidity 62    
Maximum Humidity 84    
Minimum Humidity 40    
Precipitation
Precipitation 0.00 in / 0.00 cm 0.11 in / 2.79 cm 0.82 in / 2.08 cm (1972)
Month to date precipitation 0.33 0.97  
Year to date precipitation 35.87 43.97  
Wind
Wind Speed 4 mph / 6 km/h   
Max Wind Speed 10 mph / 16 km/h   
Max Gust Speed 15 mph / 24 km/h   
Visibility 10 miles / 16 kilometers   
Events     

Key: T is trace of precipitation, MM is missing value
Source: NWS Daily Summary
Time(EST)TemperatureDew PointHumidity Pressure Visibility Wind DirectionWind SpeedGust SpeedPrecipitationEvents Conditions
12:53 AM 32.0°F 0.0°C 23.0°F -5.0°C 69% 29.99 in / 1015.4 hPa 10.0 miles / 16.1 kilometers West 3.5 mph / 5.6 km/h - N/A   Clear
1:53 AM 30.0°F -1.1°C 21.9°F -5.6°C 72% 30.00 in / 1015.8 hPa 10.0 miles / 16.1 kilometers SW 6.9 mph / 11.1 km/h - N/A   Clear
2:53 AM 28.9°F -1.7°C 21.0°F -6.1°C 72% 30.01 in / 1016.1 hPa 10.0 miles / 16.1 kilometers WSW 6.9 mph / 11.1 km/h - N/A   Clear
3:53 AM 28.9°F -1.7°C 19.0°F -7.2°C 67% 30.01 in / 1016.3 hPa 10.0 miles / 16.1 kilometers SW 3.5 mph / 5.6 km/h - N/A   Clear
4:53 AM 24.1°F -4.4°C 19.0°F -7.2°C 81% 30.03 in / 1016.7 hPa 10.0 miles / 16.1 kilometers SE 4.6 mph / 7.4 km/h - N/A   Clear
5:53 AM 24.1°F -4.4°C 18.0°F -7.8°C 77% 30.04 in / 1017.3 hPa 10.0 miles / 16.1 kilometers Calm Calm - N/A   Clear
6:53 AM 21.9°F -5.6°C 17.1°F -8.3°C 82% 30.04 in / 1017.1 hPa 10.0 miles / 16.1 kilometers Calm Calm - N/A   Clear
7:53 AM 23.0°F -5.0°C 18.0°F -7.8°C 81% 30.06 in / 1017.8 hPa 10.0 miles / 16.1 kilometers Calm Calm - N/A   Clear
8:53 AM 30.9°F -0.6°C 18.0°F -7.8°C 59% 30.06 in / 1017.8 hPa 10.0 miles / 16.1 kilometers SW 3.5 mph / 5.6 km/h - N/A   Clear
9:53 AM 33.1°F 0.6°C 18.0°F -7.8°C 54% 30.08 in / 1018.5 hPa 10.0 miles / 16.1 kilometers WSW 9.2 mph / 14.8 km/h - N/A   Clear
10:53 AM 33.1°F 0.6°C 17.1°F -8.3°C 52% 30.06 in / 1018.0 hPa 10.0 miles / 16.1 kilometers SW 6.9 mph / 11.1 km/h - N/A   Clear
11:53 AM 34.0°F 1.1°C 17.1°F -8.3°C 50% 30.04 in / 1017.1 hPa 10.0 miles / 16.1 kilometers SW 6.9 mph / 11.1 km/h - N/A   Clear
12:53 PM 35.1°F 1.7°C 17.1°F -8.3°C 48% 30.02 in / 1016.4 hPa 10.0 miles / 16.1 kilometers Variable 5.8 mph / 9.3 km/h - N/A   Clear
1:53 PM 35.1°F 1.7°C 16.0°F -8.9°C 46% 30.01 in / 1016.0 hPa 10.0 miles / 16.1 kilometers South 6.9 mph / 11.1 km/h - N/A   Clear
2:53 PM 35.1°F 1.7°C 14.0°F -10.0°C 42% 30.00 in / 1015.7 hPa 10.0 miles / 16.1 kilometers SSW 6.9 mph / 11.1 km/h - N/A   Clear
3:53 PM 35.1°F 1.7°C 15.1°F -9.4°C 44% 30.01 in / 1016.0 hPa 10.0 miles / 16.1 kilometers SW 3.5 mph / 5.6 km/h - N/A   Clear
4:53 PM 35.1°F 1.7°C 15.1°F -9.4°C 44% 30.00 in / 1015.7 hPa 10.0 miles / 16.1 kilometers SW 4.6 mph / 7.4 km/h - N/A   Clear
5:53 PM 34.0°F 1.1°C 15.1°F -9.4°C 46% 30.01 in / 1016.3 hPa 10.0 miles / 16.1 kilometers SW 4.6 mph / 7.4 km/h - N/A   Clear
6:53 PM 34.0°F 1.1°C 14.0°F -10.0°C 44% 29.99 in / 1015.6 hPa 10.0 miles / 16.1 kilometers Calm Calm - N/A   Clear
7:53 PM 33.1°F 0.6°C 15.1°F -9.4°C 48% 29.98 in / 1015.1 hPa 10.0 miles / 16.1 kilometers SW 3.5 mph / 5.6 km/h - N/A   Clear
8:53 PM 33.1°F 0.6°C 15.1°F -9.4°C 48% 29.97 in / 1014.7 hPa 10.0 miles / 16.1 kilometers Calm Calm - N/A   Clear
9:53 PM 32.0°F 0.0°C 17.1°F -8.3°C 54% 29.97 in / 1014.9 hPa 10.0 miles / 16.1 kilometers WSW 4.6 mph / 7.4 km/h - N/A   Clear
10:53 PM 32.0°F 0.0°C 17.1°F -8.3°C 54% 29.96 in / 1014.5 hPa 10.0 miles / 16.1 kilometers SSW 3.5 mph / 5.6 km/h - N/A   Clear
11:53 PM 32.0°F 0.0°C 16.0°F -8.9°C 52% 29.94 in / 1013.7 hPa 10.0 miles / 16.1 kilometers Calm Calm - N/A   Clear